Regional Weather Roundup
Issued by NWS

Home | Current Version | Previous Version | Text Only | Print | Product List | Glossary On
Versions: 1 2 3 4 5 6 7 8 9 10 11 12 13 14 15 16 17 18 19 20 21 22 23 24 25 26 27 28 29 30 31 32 33 34 35 36 37 38 39 40 41 42 43 44 45 46 47 48 49 50
000
ASUS43 KLSX 200959
RWRMO

WEATHER SUMMARY FOR MISSOURI
NATIONAL WEATHER SERVICE SPRINGFIELD MO
500 AM CDT SAT SEP 20 2014

NOTE: "FAIR" INDICATES FEW OR NO CLOUDS BELOW 12,000 FEET WITH NO
       SIGNIFICANT WEATHER AND/OR OBSTRUCTIONS TO VISIBILITY.
       CURRENT SKY AND/OR WEATHER CONDITIONS ARE NOT AVAILABLE FOR
       CHILLICOTHE AND FARMINGTON.

MOZ001>031-035>038-043-044-053-054-201100-
...NORTHERN AND WESTERN MISSOURI...

CITY           SKY/WX    TMP DP  RH WIND       PRES   REMARKS
KANSAS CTY INT CLEAR     67  66  97 S12       29.92F FOG
KANSAS C DTWN  CLEAR     71  67  87 SW9       29.93S
LEE`S SUMMIT   CLEAR     68  66  93 SW10      29.95S FOG
ST JOSEPH      CLEAR     68  66  93 S10       29.90S FOG
KIRKSVILLE     PTCLDY    66  63  90 SW9       29.93S

$$
MOZ066>068-077>081-088>096-101>105-201100-
...SOUTHWEST MISSOURI...

CITY           SKY/WX    TMP DP  RH WIND       PRES   REMARKS
SPRINGFIELD    CLEAR     65  63  93 S7        30.01S
JOPLIN         CLEAR     68  67  96 S8        29.99S

$$
MOZ032>034-039>042-045>050-055>058-069>072-201100-
...CENTRAL MISSOURI...

CITY           SKY/WX    TMP DP  RH WIND       PRES   REMARKS
COLUMBIA       CLEAR     62  61  96 S6        29.98R FOG
JEFFERSON CITY CLEAR     63  61  93 E5        29.97S
ROLLA          CLEAR     64  61  90 S9        30.00R FOG
SEDALIA        CLEAR     66  63  90 S8        29.96S
OSAGE BEACH    CLEAR     63  61  94 S3        29.99R

$$
MOZ051-052-059>065-201100-
...EAST CENTRAL MISSOURI...

CITY           SKY/WX    TMP DP  RH WIND       PRES   REMARKS
ST LOUIS INTL  PTCLDY    66  59  78 S3        29.99S
SPIRIT OF STL  PTCLDY    55  54  96 CALM      29.98S FOG
ST CHARLES     CLEAR     56  55  97 CALM      29.98S FOG

$$
MOZ072>076-082>087-097>100-106>115-201100-
...SOUTH CENTRAL AND SOUTHEAST MISSOURI...

CITY           SKY/WX    TMP DP  RH WIND       PRES   REMARKS
CAPE GIRARDEAU FOG       56  55  97 CALM      30.03R VSB 1/2
FARMINGTON     CLEAR     57  57 100 CALM      30.04S
POPLAR BLUFF   CLEAR     59  56  89 CALM      30.02R FOG
WEST PLAINS    CLEAR     63  61  93 CALM      30.04S FOG

$$



USA.gov is the U.S. government's official web portal to all federal, state and local government web resources and services.